Flag for Greece Weather past 2 weeks in Alexandroupoli, Greece

Now
46 °F

Partly sunny.


Feels Like: 42 °F
Forecast: 40 / 56 °F
Wind: 8 mph from East

Location: Alexandroupoli Airport

Current Time: Mar 4, 2015 at 9:44:04 AM

Latest Report: Mar 4, 2015 at 8:50 AM


Visibility: N/A

Pressure: 30.36 "Hg

Humidity: 53%

Dew point: 30 °F

Location of AlexandroupoliLocation

Historic Weather in Alexandroupoli — Graph

°F

Alexandroupoli temperature yesterday

Maximum temperature yesterday: 59 °F (at 12:20 PM)
Minimum temperature yesterday: 48 °F (at 12:20 AM)
Average temperature yesterday: 52 °F

Past Weeks' High & Low Weather Summary

 TemperatureHumidityPressure
High61 °F (Feb 26, 12:20 PM)100% (Feb 23, 1:50 PM)30.54 "Hg (Feb 23, 1:50 PM)
Low21 °F (Feb 19, 7:50 AM)14% (Feb 19, 1:50 PM)29.71 "Hg (Feb 24, 5:50 AM)
Average47 °F74%30.02 "Hg
* Reported Feb 17 8:20 AM — Mar 4 8:20 AM, Alexandroupoli, Weather by CustomWeather, © 2015

Note: Actual official high and low records may vary slightly from our data, if they occured in-between our weather recording intervals... More about our weather records

Advertising

Alexandroupoli weather history for previous 24 hours

 ConditionsComfort  
Time TempWeatherWind HumidityBarometerVisibility
8:20 AM
Wed, Mar 4
46 °FPartly sunny.7 mph50%30.36 "HgN/A
7:50 AM45 °FPassing clouds.No wind53%30.33 "HgN/A
7:20 AM45 °FPassing clouds.3 mph57%30.30 "HgN/A
6:50 AM45 °FPassing clouds.5 mph57%30.30 "HgN/A
6:20 AM45 °FPassing clouds.7 mph57%30.30 "HgN/A
5:50 AM45 °FPassing clouds.9 mph71%30.30 "HgN/A
4:50 AM45 °FPassing clouds.5 mph66%30.27 "HgN/A
4:20 AM45 °FPassing clouds.3 mph71%30.24 "HgN/A
3:50 AM45 °FPassing clouds.6 mph71%30.24 "HgN/A
3:20 AM46 °FPassing clouds.6 mph66%30.24 "HgN/A
2:50 AM46 °FPassing clouds.7 mph66%30.24 "HgN/A
2:20 AM46 °FPassing clouds.7 mph71%30.21 "HgN/A
1:50 AM46 °FPassing clouds.7 mph71%30.21 "HgN/A
1:20 AM48 °FPassing clouds.7 mph62%30.21 "HgN/A
12:50 AM48 °FPassing clouds.5 mph62%30.21 "HgN/A
12:20 AM48 °FPassing clouds.5 mph71%30.21 "HgN/A
11:50 PM
Tue, Mar 3
48 °FPassing clouds.5 mph71%30.18 "HgN/A
11:20 PM48 °FPassing clouds.2 mph71%30.18 "HgN/A
10:50 PM48 °FPassing clouds.5 mph71%30.15 "HgN/A
10:20 PM50 °FPassing clouds.7 mph88%30.15 "HgN/A
9:20 PM50 °FPassing clouds.9 mph88%30.12 "HgN/A
8:50 PM50 °FPassing clouds.7 mph88%30.12 "HgN/A
8:20 PM52 °FPassing clouds.5 mph88%30.12 "HgN/A
7:50 PM52 °FPassing clouds.7 mph88%30.09 "HgN/A
7:20 PM52 °FPassing clouds.No wind88%30.07 "HgN/A
6:50 PM52 °FPassing clouds.2 mph88%30.07 "HgN/A
6:20 PM52 °FPassing clouds.3 mph88%30.04 "HgN/A
5:50 PM54 °FScattered clouds.3 mph88%30.04 "HgN/A
5:20 PM55 °FPartly sunny.2 mph88%30.01 "HgN/A
4:50 PM55 °FPartly sunny.5 mph88%30.01 "HgN/A
4:20 PM55 °FLight rain. Scattered clouds.7 mph82%29.98 "HgN/A
3:50 PM57 °FScattered clouds.7 mph77%29.98 "HgN/A
3:20 PM57 °FLight rain. Scattered clouds.6 mph77%29.95 "HgN/A
2:50 PM57 °FScattered clouds.10 mph77%29.95 "HgN/A
2:20 PM57 °FScattered clouds.9 mph77%29.95 "HgN/A
1:50 PM57 °FBroken clouds.13 mph77%29.95 "HgN/A
1:20 PM59 °FBroken clouds.13 mph77%29.95 "HgN/A
12:50 PM59 °FBroken clouds.10 mph77%29.95 "HgN/A
12:20 PM59 °FBroken clouds.10 mph77%29.95 "HgN/A
11:50 AM57 °FScattered clouds.8 mph77%29.95 "HgN/A
11:20 AM57 °FScattered clouds.10 mph88%29.92 "HgN/A
10:50 AM57 °FPartly sunny.9 mph88%29.92 "HgN/A
10:20 AM54 °FPartly sunny.5 mph82%29.92 "HgN/A
9:50 AM54 °FPartly sunny.7 mph82%29.92 "HgN/A
9:20 AM52 °FBroken clouds.2 mph88%29.89 "HgN/A
Weather by CustomWeather, © 2015

See weather overviewHow to use our weather pages